GW4166 Weather Reports


time (UTC)temp
F
wind
direction
speed
knots
gust
knots
rain 1hr
in
rain 24hr
in
rain mn
in
humidity
%
barometer
mb
20260503211529 56 248 0.9 5.2 0.00 0.01 0.00 41 1011.9
20260503210029 57 224 1.7 7.0 0.00 0.01 0.00 39 1011.9
20260503204549 57 228 1.7 7.8 0.00 0.01 0.00 39 1012.1
20260503203030 56 207 0.9 5.2 0.00 0.01 0.00 40 1012.2
20260503201530 56 239 1.7 5.2 0.00 0.01 0.00 42 1012.2
20260503200030 56 270 0.9 4.3 0.00 0.01 0.00 40 1012.5
20260503194529 55 219 1.7 6.1 0.00 0.01 0.00 41 1012.8
20260503193029 56 228 0.9 6.1 0.00 0.01 0.00 41 1013.0
20260503191528 57 248 2.6 4.3 0.00 0.01 0.00 43 1013.2
20260503190027 56 205 1.7 7.0 0.00 0.01 0.00 41 1013.4
20260503184533 56 269 1.7 7.0 0.00 0.01 0.00 39 1013.5
20260503183038 57 139 0.9 7.0 0.00 0.01 0.00 43 1013.5
20260503181527 57 257 1.7 4.3 0.00 0.01 0.00 40 1013.8
20260503180032 56 212 0.9 4.3 0.00 0.01 0.00 42 1013.9
20260503174538 56 224 0.9 7.0 0.00 0.01 0.00 41 1014.2
20260503173028 54 208 2.6 5.2 0.00 0.01 0.00 43 1014.3
20260503171533 54 224 2.6 7.8 0.00 0.01 0.00 41 1014.4
20260503081544 32 0 0.0 0.0 0.00 0.01 0.00 85 1014.6
20260503071551 33 0 0.0 0.0 0.00 0.01 0.00 83 1014.3
20260503054534 34 284 0.0 1.7 0.00 0.01 0.00 78 1014.7
20260503053029 34 0 0.0 1.7 0.00 0.01 0.00 77 1014.7
20260503051536 35 286 0.0 1.7 0.00 0.01 0.00 77 1014.9
20260503050030 35 0 0.0 1.7 0.00 0.01 0.00 76 1014.9
20260503044530 35 0 0.0 0.9 0.00 0.01 0.00 77 1015.0
20260503043029 35 0 0.0 1.7 0.00 0.01 0.00 76 1014.9
20260503041532 35 0 0.0 1.7 0.00 0.01 0.00 75 1015.0
20260503040029 35 0 0.0 1.7 0.00 0.01 0.00 75 1015.0
20260503034528 36 0 0.0 1.7 0.00 0.01 0.01 74 1015.0
20260503033033 36 0 0.0 1.7 0.00 0.01 0.01 74 1015.1
20260503031535 36 285 0.0 1.7 0.00 0.01 0.01 75 1015.1
20260503030034 36 0 0.0 1.7 0.00 0.01 0.01 74 1015.2
20260503024535 36 281 0.0 1.7 0.00 0.01 0.01 73 1015.2
20260503023031 36 281 0.0 1.7 0.00 0.01 0.01 73 1015.2
20260503021532 37 0 0.0 0.0 0.00 0.01 0.01 72 1015.4
20260503020030 37 0 0.0 1.7 0.00 0.01 0.01 71 1015.4
20260503014528 37 292 0.0 1.7 0.00 0.01 0.01 69 1015.2
20260503013034 37 282 0.0 1.7 0.00 0.01 0.01 69 1015.2
20260503011530 37 0 0.0 0.9 0.00 0.01 0.01 69 1015.1
20260503010033 38 0 0.0 1.7 0.00 0.01 0.01 70 1015.0
20260503004555 38 282 0.0 1.7 0.00 0.01 0.01 69 1015.0
20260503003036 38 0 0.0 1.7 0.00 0.01 0.01 69 1014.8
20260503001530 38 0 0.0 1.7 0.00 0.01 0.01 70 1014.7
20260503000030 38 290 0.0 1.7 0.00 0.01 0.01 67 1014.7
20260502234534 39 274 0.0 1.7 0.00 0.01 0.01 67 1014.6
20260502233031 39 263 0.0 1.7 0.01 0.01 0.01 67 1014.6
20260502231529 39 286 0.0 1.7 0.01 0.01 0.01 66 1014.5
20260502230030 40 0 0.0 1.7 0.01 0.01 0.01 65 1014.6
20260502224530 40 301 0.9 2.6 0.01 0.01 0.01 65 1014.5
20260502223028 40 284 0.0 2.6 0.00 0.00 0.00 65 1014.4
20260502221531 41 278 0.9 2.6 0.00 0.00 0.00 65 1014.3
20260502220030 41 274 0.9 2.6 0.00 0.00 0.00 66 1014.3
20260502214528 41 0 0.0 3.5 0.00 0.01 0.00 70 1014.3
20260502213038 41 277 0.0 3.5 0.00 0.01 0.00 73 1014.3